FW5298 Weather Reports


time (UTC)temp
C
wind
direction
speed
KPH
gust
KPH
rain 1hr
cm
rain 24hr
cm
rain mn
cm
humidity
%
barometer
mb
20260507052552 13 165 6.4 11.3 0.00 0.00 0.00 60 1013.5
20260507051529 12 184 4.8 11.3 0.00 0.00 0.00 62 1013.5
20260507050528 11 181 4.8 17.7 0.00 0.00 0.00 63 1013.4
20260507045527 11 180 4.8 9.7 0.00 0.00 0.00 64 1013.3
20260507044524 11 181 3.2 11.3 0.00 0.00 0.00 63 1013.2
20260507043542 10 185 4.8 25.7 0.00 0.00 0.00 63 1013.2
20260507042520 10 180 3.2 9.7 0.00 0.00 0.00 62 1013.1
20260507041518 10 190 3.2 14.5 0.00 0.00 0.00 62 1013.1
20260507040538 10 180 3.2 8.0 0.00 0.00 0.00 61 1013.1
20260507035514 10 181 3.2 6.4 0.00 0.00 0.00 60 1013.0
20260507034512 10 184 3.2 6.4 0.00 0.00 0.00 59 1013.1
20260507033510 11 183 3.2 8.0 0.00 0.00 0.00 57 1013.0
20260507032510 11 187 3.2 27.4 0.00 0.00 0.00 56 1013.0
20260507031506 11 195 3.2 8.0 0.00 0.00 0.00 56 1012.9
20260507030504 11 173 3.2 9.7 0.00 0.00 0.00 55 1013.0
20260507025008 11 175 4.8 8.0 0.00 0.00 0.00 54 1012.8
20260507023959 12 181 3.2 14.5 0.00 0.00 0.00 53 1012.8
20260507022958 12 176 4.8 11.3 0.00 0.00 0.00 53 1012.8
20260507022015 12 178 3.2 6.4 0.00 0.00 0.00 53 1012.8
20260507020953 12 184 3.2 8.0 0.00 0.00 0.00 53 1012.8
20260507015951 12 189 3.2 9.7 0.00 0.00 0.00 53 1012.6
20260507014950 12 184 3.2 12.9 0.00 0.00 0.00 53 1012.6
20260507013947 12 195 3.2 8.0 0.00 0.00 0.00 53 1012.7
20260507012945 12 188 6.4 27.4 0.00 0.00 0.00 53 1012.6
20260507011943 12 184 4.8 12.9 0.00 0.00 0.00 53 1012.7
20260507010941 12 181 6.4 11.3 0.00 0.00 0.00 53 1012.7
20260507005939 12 183 4.8 11.3 0.00 0.00 0.00 52 1012.7
20260507004937 12 176 4.8 11.3 0.00 0.00 0.00 52 1012.7
20260507003935 13 181 4.8 11.3 0.00 0.00 0.00 52 1012.7
20260507002933 13 180 3.2 12.9 0.00 0.00 0.00 51 1012.6
20260507001931 13 183 3.2 11.3 0.00 0.00 0.00 51 1012.7
20260507000949 13 173 6.4 11.3 0.00 0.00 0.00 51 1012.6
20260506235948 13 173 6.4 11.3 0.00 0.00 0.00 51 1012.6
20260506234924 13 178 6.4 14.5 0.00 0.00 0.00 51 1012.7
20260506233922 13 181 6.4 16.1 0.00 0.00 0.00 51 1012.7
20260506232920 13 170 6.4 14.5 0.00 0.00 0.00 52 1012.6
20260506231939 13 174 6.4 14.5 0.00 0.00 0.00 52 1012.7
20260506230917 13 171 6.4 14.5 0.00 0.00 0.00 53 1012.7
20260506225916 14 174 6.4 16.1 0.00 0.00 0.00 53 1012.6
20260506224913 14 182 6.4 14.5 0.00 0.00 0.00 54 1012.7
20260506223911 14 181 6.4 16.1 0.00 0.00 0.00 54 1012.7
20260506222908 14 184 6.4 17.7 0.00 0.00 0.00 55 1012.7
20260506221907 14 181 6.4 17.7 0.00 0.00 0.00 55 1012.7
20260506220905 15 184 6.4 14.5 0.00 0.00 0.00 55 1012.7
20260506215904 15 176 8.0 14.5 0.00 0.00 0.00 54 1012.6
20260506214901 15 178 6.4 16.1 0.00 0.00 0.00 54 1012.5
20260506213859 15 178 9.7 22.5 0.00 0.00 0.00 54 1012.5
20260506212856 15 177 9.7 22.5 0.00 0.00 0.00 53 1012.4
20260506211855 15 184 8.0 22.5 0.00 0.00 0.00 53 1012.4
20260506210912 16 172 9.7 20.9 0.00 0.00 0.00 52 1012.4
20260506205851 16 176 8.0 17.7 0.00 0.00 0.00 52 1012.4
20260506204849 16 172 8.0 16.1 0.00 0.00 0.00 51 1012.4
20260506203846 16 166 8.0 22.5 0.00 0.00 0.00 51 1012.4
20260506202846 16 172 8.0 24.1 0.00 0.00 0.00 50 1012.3
20260506201845 16 174 9.7 19.3 0.00 0.00 0.00 50 1012.3
20260506200903 17 176 6.4 14.5 0.00 0.00 0.00 49 1012.2
20260506195838 17 170 8.0 24.1 0.00 0.00 0.00 49 1012.1
20260506194837 17 166 9.7 19.3 0.00 0.00 0.00 49 1012.0
20260506193835 17 173 8.0 17.7 0.00 0.00 0.00 48 1012.0
20260506192835 17 171 8.0 20.9 0.00 0.00 0.00 48 1011.9
20260506191832 17 170 8.0 16.1 0.00 0.00 0.00 47 1011.8
20260506190829 18 181 6.4 17.7 0.00 0.00 0.00 47 1011.8
20260506185828 18 173 6.4 16.1 0.00 0.00 0.00 46 1011.6
20260506184825 18 178 6.4 17.7 0.00 0.00 0.00 46 1011.5
20260506183844 18 173 9.7 22.5 0.00 0.00 0.00 45 1011.4
20260506182821 18 178 6.4 11.3 0.00 0.00 0.00 45 1011.3
20260506181819 19 183 4.8 11.3 0.00 0.00 0.00 44 1011.2
20260506180837 19 178 6.4 14.5 0.00 0.00 0.00 44 1011.1
20260506175815 20 178 6.4 11.3 0.00 0.00 0.00 43 1011.0
20260506174813 20 174 6.4 27.4 0.00 0.00 0.00 42 1010.9
20260506173811 20 191 4.8 24.1 0.00 0.00 0.00 41 1010.9
20260506172809 21 189 6.4 22.5 0.00 0.00 0.00 40 1010.8
20260506171807 21 178 4.8 19.3 0.00 0.00 0.00 39 1010.7
20260506170805 22 184 4.8 9.7 0.00 0.00 0.00 39 1010.7
20260506165803 22 194 6.4 9.7 0.00 0.00 0.00 39 1010.7
20260506164801 22 194 6.4 14.5 0.00 0.00 0.00 38 1010.6
20260506163759 23 200 8.0 14.5 0.00 0.00 0.00 37 1010.7
20260506162817 23 184 6.4 22.5 0.00 0.00 0.00 37 1010.6
20260506161755 23 176 6.4 11.3 0.00 0.00 0.00 37 1010.5
20260506160813 24 173 6.4 14.5 0.00 0.00 0.00 36 1010.5
20260506155831 24 174 6.4 14.5 0.00 0.00 0.00 36 1010.5
20260506154749 25 178 6.4 17.7 0.00 0.00 0.00 35 1010.5
20260506153747 25 178 6.4 19.3 0.00 0.00 0.00 35 1010.5
20260506152745 25 178 6.4 22.5 0.00 0.00 0.00 35 1010.5
20260506151743 25 194 6.4 12.9 0.00 0.00 0.00 35 1010.6
20260506150801 25 175 6.4 29.0 0.00 0.00 0.00 35 1010.6
20260506145739 25 195 4.8 11.3 0.00 0.00 0.00 35 1010.6
20260506144737 26 196 6.4 16.1 0.00 0.00 0.00 35 1010.7
20260506143734 26 205 6.4 19.3 0.00 0.00 0.00 34 1010.7
20260506142753 26 187 6.4 16.1 0.00 0.00 0.00 34 1010.8
20260506141731 26 204 6.4 11.3 0.00 0.00 0.00 35 1010.7
20260506140749 26 198 6.4 32.2 0.00 0.00 0.00 34 1010.7
20260506135727 26 188 6.4 16.1 0.00 0.00 0.00 33 1010.7
20260506134725 26 194 4.8 9.7 0.00 0.00 0.00 34 1010.7
20260506133723 26 186 6.4 20.9 0.00 0.00 0.00 33 1010.7
20260506132721 27 183 4.8 9.7 0.00 0.00 0.00 33 1010.7
20260506131718 27 190 4.8 11.3 0.00 0.00 0.00 33 1010.8
20260506130737 27 204 6.4 25.7 0.00 0.00 0.00 33 1010.8
20260506125714 26 192 6.4 12.9 0.00 0.00 0.00 33 1010.9
20260506124732 27 184 6.4 16.1 0.00 0.00 0.00 33 1011.0
20260506123712 26 182 4.8 9.7 0.00 0.00 0.00 33 1011.0
20260506122709 26 196 4.8 12.9 0.00 0.00 0.00 33 1011.2
20260506121708 26 170 6.4 11.3 0.00 0.00 0.00 33 1011.2
20260506120706 26 185 6.4 33.8 0.00 0.00 0.00 32 1011.3
20260506115706 26 189 4.8 9.7 0.00 0.00 0.00 32 1011.4
20260506114703 26 178 6.4 11.3 0.00 0.00 0.00 32 1011.5
20260506113700 26 173 6.4 16.1 0.00 0.00 0.00 32 1011.5
20260506112657 26 181 6.4 14.5 0.00 0.00 0.00 35 1011.6
20260506111656 26 177 6.4 12.9 0.00 0.00 0.00 34 1011.6
20260506110655 26 172 6.4 24.1 0.00 0.00 0.00 35 1011.7
20260506105712 26 189 6.4 14.5 0.00 0.00 0.00 35 1011.8
20260506104649 26 177 6.4 17.7 0.00 0.00 0.00 35 1011.8
20260506103649 25 181 4.8 22.5 0.00 0.00 0.00 36 1011.8
20260506102646 25 194 3.2 11.3 0.00 0.00 0.00 36 1011.8
20260506101644 25 174 6.4 16.1 0.00 0.00 0.00 36 1011.9
20260506100642 25 177 6.4 11.3 0.00 0.00 0.00 37 1012.0
20260506095640 25 168 6.4 22.5 0.00 0.00 0.00 36 1012.1
20260506094637 25 184 6.4 14.5 0.00 0.00 0.00 38 1012.1
20260506093637 24 198 4.8 11.3 0.00 0.00 0.00 39 1012.2
20260506092633 23 190 6.4 17.7 0.00 0.00 0.00 39 1012.2
20260506091632 23 185 4.8 9.7 0.00 0.00 0.00 40 1012.2
20260506090630 22 185 4.8 11.3 0.00 0.00 0.00 42 1012.2
20260506085628 22 178 4.8 11.3 0.00 0.00 0.00 42 1012.2
20260506084625 22 177 6.4 12.9 0.00 0.00 0.00 43 1012.2
20260506083623 21 177 6.4 27.4 0.00 0.00 0.00 43 1012.2
20260506082623 20 187 6.4 22.5 0.00 0.00 0.00 45 1012.2
20260506081619 20 181 6.4 11.3 0.00 0.00 0.00 46 1012.2
20260506080617 19 171 6.4 19.3 0.00 0.00 0.00 46 1012.2
20260506072609 18 172 6.4 11.3 0.00 0.00 0.00 48 1012.3
20260506071607 17 176 6.4 11.3 0.00 0.00 0.00 49 1012.2
20260506070606 17 177 4.8 11.3 0.00 0.00 0.00 50 1012.2
20260506061616 15 175 6.4 11.3 0.00 0.00 0.00 52 1012.4
20260506060553 15 181 6.4 19.3 0.00 0.00 0.00 53 1012.4